Location: Grust
(42.8833°N, 0.0333°W)
Time: 12:55:16
(UTC+00:00)

Cosmos 1697 Rocket - Pass Details

Date: 25 October 2020
Orbit: 831 x 845 km, 71.0° (Epoch: 24 November)

Event Time Altitude Azimuth Distance (km) Brightness Sun altitude
Rises 18:09:40 0° 168° (SSE) 3,360 5.8 -13.1°
Reaches altitude 10° 18:12:28 10° 155° (SSE) 2,433 4.9 -13.6°
Maximum altitude 18:16:56 25° 102° (ESE) 1,618 3.6 -14.4°
Enters shadow 18:18:49 21° 73° (ENE) 1,797 3.8 -14.7°
